Location: Unspecified
(0.0000°N, 0.0000°E)
Time: 03:47:50
(UTC+00:00)

Vanguard 1 - Pass Details

Date: 21 April 2026
Orbit: 654 x 3817 km, 34.2° (Epoch: 13 May)

Event Time Altitude Azimuth Distance (km) Brightness Sun altitude
Rises 02:16:44 0° 314° (NW) 7,867 14.5 -53.8°
Reaches altitude 10° 02:25:25 10° 330° (NNW) 6,515 14.1 -51.7°
Maximum altitude 02:37:56 19° 9° (N) 4,889 13.7 -48.8°
Drops below altitude 10° 02:47:10 10° 50° (NE) 4,729 14.0 -46.6°
Sets 02:51:48 0° 68° (ENE) 5,195 14.5 -45.5°
